Tracking 28790 objects as of 19-Apr-2024
HD Live streaming from Space Station
objects crossing your sky now

FENGYUN 1C DEB

Track FENGYUN 1C DEB now!
10-day predictions


NORAD ID: 30817
Int'l Code: 1999-025AVB
Perigee: 854.5 km
Apogee: 950.8 km
Inclination: 98.8 °
Period: 102.9 minutes
Semi major axis: 7273 km
RCS: 0.0075 m2 (small)
Launch date: May 10, 1999
Source: People's Republic of China (PRC)
Launch site: Taiyaun Space Center, China (TSC)

Note: This is SATELLITE DEBRIS
Your satellite tracking list
Your tracking list is empty




NASA's NSSDC Master Catalog

Two Line Element Set (TLE):
1 30817U 99025AVB 24109.98835535  .00000926  00000-0  65107-3 0  9995
2 30817  98.7649 118.5034 0066163 121.0115 239.7570 13.99503129875385
Source of the keplerian elements: AFSPC